Clines Corners, NM

10:18 PM MDT on August 30, 2016 (GMT -0600)
Clines Corner

Weather History for KCQC - July, 2013

Change the Weather History Date:

Thursday, July 25, 2013

  Actual Average (KSAF) Record (KSAF)
Temperature  
Mean Temperature 66 °F -  
Max Temperature 77 °F 90 °F 96 °F (2003)
Min Temperature 57 °F 59 °F 55 °F (2004)
Cooling Degree Days 1    
Growing Degree Days 16 (Base 50)    
Moisture  
Dew Point 56 °F    
Average Humidity 76    
Maximum Humidity 94    
Minimum Humidity 51    
Precipitation  
Precipitation 0.23 in - - ()
Sea Level Pressure  
Sea Level Pressure 30.15 in    
Wind  
Wind Speed 10 mph (SSW)    
Max Wind Speed 20 mph    
Max Gust Speed 26 mph    
Visibility 10 miles    
Events Rain    
Averages and records for this station are not official NWS values.
T = Trace of Precipitation, MM = Missing Value Source: NWS Daily Summary

Daily Weather History Graph

Daily Weather History Graph

Search for Another Location

Airport or City:

Trip Planner

Search our weather history database for the weather conditions in past years. The results will help you decide how hot, cold, wet, or windy it might be!

Date:

Astronomy

Jul. 25, 2013 Rise Set
Actual Time 6:07 AM MDT 8:10 PM MDT
Civil Twilight 5:38 AM MDT 8:39 PM MDT
Nautical Twilight 5:04 AM MDT 9:13 PM MDT
Astronomical Twilight 4:27 AM MDT 9:50 PM MDT
Moon 10:04 PM MDT (7/25) 9:29 AM MDT (7/25)
Length of Visible Light 15h 00m
Length of Day
14h 03m
Waning Gibbous, 88% of the Moon is Illuminated
Jul 25
Waning Gibbous
Jul 29
Last Quarter
Aug 6
New
Aug 14
First Quarter
Aug 20
Full

Hourly Weather History & Observations

Time (MDT) Temp. Dew Point Humidity Pressure Visibility Wind Dir Wind Speed Gust Speed Precip Events Conditions
12:53 AM 60.1 °F 54.0 °F 80% 30.05 in 10.0 mi South 10.4 mph - N/A   Overcast
1:53 AM 59.0 °F 55.0 °F 87% 30.04 in 10.0 mi SSE 5.8 mph - N/A   Overcast
2:45 AM 57.2 °F 55.4 °F 94% 30.36 in 10.0 mi ESE 11.5 mph 17.3 mph N/A   Overcast
2:53 AM 57.9 °F 55.0 °F 90% 30.07 in 10.0 mi ESE 8.1 mph - N/A   Overcast
3:19 AM 57.2 °F 55.4 °F 94% 30.36 in 10.0 mi East 4.6 mph - N/A   Overcast
3:27 AM 57.2 °F 55.4 °F 94% 30.36 in 10.0 mi East 5.8 mph - N/A   Overcast
3:38 AM 57.2 °F 55.4 °F 94% 30.36 in 10.0 mi Calm Calm - N/A   Overcast
3:53 AM 57.9 °F 55.9 °F 93% 30.12 in 10.0 mi ESE 4.6 mph - N/A   Overcast
4:53 AM 57.9 °F 54.0 °F 87% 30.11 in 10.0 mi SW 4.6 mph - N/A   Scattered Clouds
5:53 AM 57.9 °F 54.0 °F 87% 30.11 in 10.0 mi NW 3.5 mph - N/A   Mostly Cloudy
6:53 AM 57.9 °F 55.0 °F 90% 30.13 in 10.0 mi SE 6.9 mph - N/A   Overcast
7:26 AM 57.2 °F 55.4 °F 94% 30.34 in 6.0 mi ESE 3.5 mph - N/A   Overcast
7:53 AM 60.1 °F 55.9 °F 86% 30.12 in 10.0 mi South 5.8 mph - N/A   Scattered Clouds
8:53 AM 63.0 °F 55.9 °F 78% 30.12 in 10.0 mi SW 12.7 mph - N/A   Mostly Cloudy
9:44 AM 64.4 °F 55.4 °F 73% 30.35 in 10.0 mi WSW 15.0 mph - N/A   Mostly Cloudy
9:53 AM 64.0 °F 55.0 °F 73% 30.12 in 10.0 mi SW 15.0 mph - N/A   Mostly Cloudy
10:53 AM 64.0 °F 57.0 °F 78% 30.12 in 10.0 mi WSW 15.0 mph - N/A   Overcast
11:20 AM 66.2 °F 55.4 °F 68% 30.36 in 10.0 mi WSW 19.6 mph - N/A   Mostly Cloudy
11:53 AM 68.0 °F 57.0 °F 68% 30.09 in 10.0 mi West 13.8 mph - N/A   Partly Cloudy
12:31 PM 69.8 °F 57.2 °F 64% 30.34 in 10.0 mi WSW 13.8 mph - N/A   Mostly Cloudy
12:53 PM 69.1 °F 57.9 °F 68% 30.07 in 10.0 mi West 12.7 mph - N/A   Mostly Cloudy
1:23 PM 69.8 °F 57.2 °F 64% 30.33 in 10.0 mi WSW 13.8 mph - N/A   Scattered Clouds
1:53 PM 72.0 °F 57.9 °F 61% 30.04 in 10.0 mi WSW 13.8 mph 20.7 mph N/A   Partly Cloudy
2:53 PM 73.0 °F 57.0 °F 57% 30.01 in 10.0 mi WSW 13.8 mph 20.7 mph N/A   Scattered Clouds
3:53 PM 75.0 °F 55.9 °F 51% 29.99 in 10.0 mi West 12.7 mph 20.7 mph N/A   Partly Cloudy
4:53 PM 75.0 °F 55.9 °F 51% 29.96 in 10.0 mi WSW 16.1 mph 23.0 mph N/A   Partly Cloudy
5:53 PM 75.0 °F 55.9 °F 51% 29.96 in 10.0 mi SW 16.1 mph - N/A   Clear
6:53 PM 73.9 °F 55.9 °F 53% 29.97 in 10.0 mi WSW 16.1 mph - N/A   Clear
7:53 PM 70.0 °F 57.0 °F 63% 30.03 in 10.0 mi SW 15.0 mph - N/A   Clear
8:53 PM 64.0 °F 52.0 °F 65% 30.10 in 10.0 mi ENE 19.6 mph 26.5 mph N/A   Overcast
9:08 PM 62.6 °F 53.6 °F 72% 30.36 in 8.0 mi NE 18.4 mph 26.5 mph 0.01 in Rain Heavy Rain
9:53 PM 57.9 °F 54.0 °F 87% 30.14 in 8.0 mi WNW 6.9 mph - 0.22 in Rain Light Rain
10:53 PM 63.0 °F 55.9 °F 78% 30.10 in 10.0 mi NE 8.1 mph - 0.01 in Rain Light Rain
11:53 PM 62.1 °F 55.9 °F 80% 30.12 in 10.0 mi ENE 9.2 mph - 0.00 in   Mostly Cloudy